Regional Weather Roundup
Issued by NWS Wilmington, NC

Home | Current Version | Previous Version | Text Only | Print | Product List | Glossary On
Versions: 1 2 3 4 5 6 7 8 9 10 11 12 13 14 15 16 17 18 19 20 21 22 23 24 25 26 27 28 29 30 31 32 33 34 35 36 37 38 39 40 41 42 43 44 45 46 47 48 49 50
000
ASUS42 KILM 070613
RWRILM
RWRILM
REGIONAL HOURLY WEATHER ROUNDUP
NATIONAL WEATHER SERVICE WILMINGTON NC
200 AM EDT THU MAY 07 2015

NOTE: "FAIR" INDICATES FEW OR NO CLOUDS BELOW 12,000 FEET WITH NO
SIGNIFICANT WEATHER AND/OR OBSTRUCTIONS TO VISIBILITY.

...............WFO WILMINGTON COUNTY WARNING AREA...............

......COASTAL NC AND SC COUNTIES......

CITY           SKY/WX    TMP DP  RH WIND       PRES   REMARKS
WILMINGTON     CLOUDY    64  59  83 NE13      30.08F
N MYRTLE BEACH CLOUDY    65  58  78 N8        30.07F
MYRTLE BEACH   CLOUDY    66  55  68 N14       30.09F

......INLAND NC AND SC COUNTIES.......

CITY           SKY/WX    TMP DP  RH WIND       PRES   REMARKS
LUMBERTON      CLOUDY    63  57  81 NE6       30.11F
ELIZABETHTOWN  CLOUDY    61  58  90 CALM      30.11F
WHITEVILLE     CLOUDY    64  57  79 N5        30.09F
FLORENCE       MOCLDY    62  56  80 NE8       30.10F
DARLINGTON     MOCLDY    57  52  82 N3        30.13F

....................REST OF NORTH CAROLINA......................

.........EASTERN NC.........

CITY           SKY/WX    TMP DP  RH WIND       PRES   REMARKS
CAPE HATTERAS  MOCLDY    63  56  78 E7        30.12F
JACKSONVILLE   CLOUDY    61  55  82 N6        30.12F
MOREHEAD CITY  CLOUDY    66  60  81 NE5       30.10F
KENANSVILLE    CLOUDY    60  57  89 CALM      30.14F
NEW BERN       CLOUDY    64  59  83 NE6       30.14F
ELIZABETH CITY CLOUDY    63  59  87 E6        30.16F

.........CENTRAL NC.........

CITY           SKY/WX    TMP DP  RH WIND       PRES   REMARKS
RALEIGH DURHAM CLOUDY    64  54  69 E3        30.15F
ROCKY MOUNT    CLOUDY    58  56  93 CALM      30.15F
ROANOKE RAPIDS NOT AVBL
FAYETTEVILLE   CLOUDY    60  54  80 NE3       30.12F
HOFFMAN        PTCLDY    56  54  92 NW2       30.17F

.........WESTERN NC.........

CITY           SKY/WX    TMP DP  RH WIND       PRES   REMARKS
CHARLOTTE      MOCLDY    68  48  48 E5        30.14F
GREENSBORO     MOCLDY    65  53  65 CALM      30.16F
HICKORY        NOT AVBL
BOONE          NOT AVBL
ASHEVILLE      NOT AVBL

.....................REST OF SOUTH CAROLINA.....................

.........EASTERN SC.........

CITY           SKY/WX    TMP DP  RH WIND       PRES   REMARKS
CHARLESTON     PTCLDY    62  56  80 NE7       30.05F
BEAUFORT MCAS  PTCLDY    64  57  78 N7        30.06F
HILTON HEAD    PTCLDY    66  59  77 N7        30.06F

.........CENTRAL SC.........

CITY           SKY/WX    TMP DP  RH WIND       PRES   REMARKS
COLUMBIA       PTCLDY    58  51  78 W3        30.10F
ORANGEBURG     MOCLDY    58  55  90 CALM      30.09F
SUMTER SHAW    MOCLDY    58  53  83 NE5       30.09F

.........WESTERN SC.........

CITY           SKY/WX    TMP DP  RH WIND       PRES   REMARKS
GREENVILLE     NOT AVBL
ROCK HILL      CLEAR     57  54  89 N3        30.14F
ANDERSON       CLEAR     61  55  81 CALM      30.13F
CLEMSON        NOT AVBL
GREENWOOD      MOCLDY    58  55  90 N3        30.13F


...................COASTAL AND OFFSHORE REPORTS..................

................LOCAL PIERS AND NC RESERVE................


STATION/POSITION TIME  SKY/WX   TEMP    WIND        PRES    VSBY
                                AIR SEA DIR/SP/G
                 (UTC)          (F)     (DEG/KT/KT) (MB)    (MI)
JOHNY MRCER PIER 0500            69 71   40/ 18/ 19 1018.6
NC RESRV MASNBRO NOT AVBL
OCEAN CREST PIER 0602            65 70  350/  8/ 11 1017.2F
SPRINGMAID  PIER 0500            68 72  350/ 12/ 15 1018.6F


................COASTAL AND OFFSHORE BUOYS................


STATION/POSITION TIME  SKY/WX   TEMP    WIND        PRES    VSBY
                                AIR SEA DIR/SP/G
                 (UTC)          (F)     (DEG/KT/KT) (MB)    (MI)
DIMNDSHOAL 41025 0550            72 75   80/ 14/ 17 1019.5F
WVE H/P(F/S)=  6/ 8 WND WVE H/P(F/S)=  5/ 7 SWL H/P/D(F/S/D)=  3/130/ 8

CAPE LOOKOUT     0600            69      60/ 13/ 14 1018.6F
ONSLOW BAY 41036 NOT AVBL
5 WRITEBCH 41038 0508            68 68   50/ 16/ 19 1018.7F
MASONBORO  41110 0519               68                N/A
WVE H/P(F/S)=  6/ 9 WND WVE H/P(F/S)=  5/ 9 SWL H/P/D(F/S/D)=  2/140/11

WILM HARBR 41108 0511               66                N/A
WVE H/P(F/S)=  4/ 9 WND WVE H/P(F/S)=  5/ 9 SWL H/P/D(F/S/D)=  2/160/11

27WRITEBCH 41037 0500            67 71   80/ 16/ 19   N/A
FRYING PAN 41013 0550            71 72   50/ 19/ 25 1016.4F
WVE H/P(F/S)=  8/ 8 WND WVE H/P(F/S)=  8/ 8

SUNST NRSH 41024 0508            67      30/ 14/ 17 1018.3F
CAPRS NRSH 41029 0508            69      30/ 17/ 23 1017.8F
EDISTO     41004 0550            69 73   10/ 23/ 27 1014.9F
WVE H/P(F/S)= 10/10 WND WVE H/P(F/S)=  7/ 6 SWL H/P/D(F/S/D)=  8/10



..........OFFSHORE BUOYS BEYOND 100 NM OFFSHORE...........
.....IN A TRIANGLE---HAT TO BERMUDA TO BAHAMAS TO HAT.....


STATION/POSITION TIME  SKY/WX   TEMP    WIND        PRES    VSBY
                                AIR SEA DIR/SP/G
                 (UTC)          (F)     (DEG/KT/KT) (MB)    (MI)
150E HAT   41001 NOT AVBL
W BERMUDA  41048 0550            71 71  130/ 16/ 17 1019.8F
WVE H/P(F/S)=  4/ 7 WND WVE H/P(F/S)=  3/ 7 SWL H/P/D(F/S/D)=  2/ 30/11

ATLANTIC S 41049 0550            76 77  120/ 12/ 14 1020.9F
WVE H/P(F/S)=  5/ 7 WND WVE H/P(F/S)=  3/ 5 SWL H/P/D(F/S/D)=  5/ 90/ 7

E BAHAMAS  41046 0550            80 80  130/  8/ 10 1017.8F
WVE H/P(F/S)=  5/ 7 WND WVE H/P(F/S)=  2/ 4 SWL H/P/D(F/S/D)=  5/100/ 7

NE BAHAMAS 41047 0550            77 78  150/ 16/ 17 1016.4F
WVE H/P(F/S)=  6/ 7 WND WVE H/P(F/S)=  5/ 7 SWL H/P/D(F/S/D)=  3/ 90/10

120E CANVRL41010 0520            76 77  300/ 19/ 21 1013.6F

END



USA.gov is the U.S. government's official web portal to all federal, state and local government web resources and services.